Kezdőlap
METAR-TAF:

METAR-TAF

Repülőterek :

Montevideo-Chippewa County Airport

Montevideo, Minnesota, Amerikai Egyesült Államok

földrajzi szélesség: 44-58N, földrajzi hosszúság: 095-43W, magasság: 315 m

Jelenlegi meteorológiai megfigyelések

A jelentés 17 perccel ezelõtt készült, 08:55 UTC
Szélcsend
Hőmérséklet 16°C
Páratartalom 100%
Légköri nyomás 1018 hPa
Látótávolság: 8.0 km
Derült ég
Párásság

METAR: KMVE 200855Z AUTO 00000KT 5SM BR CLR 16/16 A3006 RMK AO2

Idő: 04:12 (09:12 UTC)


TAF: hiányzik

Meteorológiai megfigyelések és előrejelzések több, mint 4000 repülőtéren (METAR és TAF jelentéseket).

A térképen piros és sárga pontok jelzik az elérhető meteorológiai állomásokat.

Mozgassa az egeret a pont fölött, hogy megjelenjen az állomás neve.

Azután kattintson az időjárási megfigyelések és előrejelzések megtekintéséhez.

A térkép megváltoztatása: kattintson a fekete keresztel jelölt zöld gombra ráközelítéshez, a vonallal jelölt zöld gombra távolításhoz, vagy a zöld nyilakra a szomszédos térképek eléréséhez.


METAR-TAF: